Morgantown, WV

1:11 AM EDT on May 22, 2018 (GMT -0400)
Morgantown Municipal-Hart

Weather History for KMGW - April, 2013

Change the Weather History Date:

Friday, April 19, 2013

  Actual Average Record
Temperature  
Mean Temperature 61 °F 54 °F  
Max Temperature 75 °F 65 °F 88 °F (2002)
Min Temperature 46 °F 43 °F 23 °F (1983)
Degree Days  
Heating Degree Days 4 11  
Month to date heating degree days 175 272  
Since 1 July heating degree days 4647 4873  
Cooling Degree Days 0 1  
Month to date cooling degree days 36 1  
Year to date cooling degree days 36 3  
Growing Degree Days 10 (Base 50)    
Moisture  
Dew Point 49 °F    
Average Humidity 60    
Maximum Humidity 71    
Minimum Humidity 49    
Precipitation  
Precipitation 0.20 in 0.12 in 1.06 in (2011)
Month to date precipitation 1.41 2.22  
Year to date precipitation 8.36 11.28  
Sea Level Pressure  
Sea Level Pressure 29.70 in    
Wind  
Wind Speed 10 mph (SSW)    
Max Wind Speed 26 mph    
Max Gust Speed 37 mph    
Visibility 9 miles    
Events Rain    
T = Trace of Precipitation, MM = Missing Value Source: NWS Daily Summary

Daily Weather History Graph

Daily Weather History Graph

Search for Another Location

Airport or City:

Astronomy

Apr. 19, 2013 Rise Set
Actual Time 6:36 AM EDT 8:01 PM EDT
Civil Twilight 6:07 AM EDT 8:30 PM EDT
Nautical Twilight 5:34 AM EDT 9:04 PM EDT
Astronomical Twilight 4:58 AM EDT 9:40 PM EDT
Moon 1:46 PM EDT (4/19) 2:49 AM EDT (4/19)
Length of Visible Light 14h 22m
Length of Day
13h 25m
First Quarter, 61% of the Moon is Illuminated
Apr 19
First Quarter
Apr 25
Full
May 2
Last Quarter
May 9
New
May 18
First Quarter

Hourly Weather History & Observations

Time (EDT) Temp. Dew Point Humidity Pressure Visibility Wind Dir Wind Speed Gust Speed Precip Events Conditions
12:53 AM 71.1 °F 51.1 °F 49% 29.78 in 10.0 mi SSE 11.5 mph 20.7 mph N/A   Clear
1:53 AM 71.1 °F 52.0 °F 51% 29.75 in 10.0 mi South 10.4 mph 18.4 mph N/A   Clear
2:53 AM 70.0 °F 53.1 °F 55% 29.72 in 10.0 mi South 9.2 mph - N/A   Clear
3:53 AM 70.0 °F 54.0 °F 57% 29.70 in 10.0 mi South 10.4 mph 17.3 mph N/A   Clear
4:53 AM 71.1 °F 54.0 °F 55% 29.68 in 10.0 mi South 12.7 mph 18.4 mph N/A   Clear
5:53 AM 71.1 °F 54.0 °F 55% 29.67 in 10.0 mi South 13.8 mph 23.0 mph N/A   Clear
6:53 AM 71.1 °F 54.0 °F 55% 29.65 in 10.0 mi South 13.8 mph 24.2 mph N/A   Clear
7:53 AM 71.1 °F 53.1 °F 53% 29.64 in 10.0 mi South 9.2 mph 20.7 mph N/A   Clear
8:53 AM 72.0 °F 53.1 °F 51% 29.61 in 10.0 mi SSE 16.1 mph 24.2 mph N/A   Clear
9:53 AM 73.0 °F 54.0 °F 51% 29.59 in 10.0 mi South 13.8 mph 25.3 mph N/A   Mostly Cloudy
10:53 AM 73.0 °F 55.0 °F 53% 29.59 in 9.0 mi South 10.4 mph 21.9 mph 0.00 in Rain Light Rain
11:53 AM 69.1 °F 57.9 °F 68% 29.55 in 10.0 mi South 20.7 mph 36.8 mph 0.07 in Rain Light Rain
12:53 PM 73.0 °F 57.0 °F 57% 29.53 in 10.0 mi South 9.2 mph 19.6 mph 0.00 in   Clear
1:44 PM 69.8 °F 59.0 °F 68% 29.58 in 1.8 mi WSW 9.2 mph 20.7 mph 0.06 in Rain Heavy Rain
1:53 PM 66.9 °F 61.0 °F 81% 29.56 in 4.0 mi West 8.1 mph - 0.07 in Rain Light Rain
2:13 PM 59.0 °F 55.4 °F 88% 29.62 in 10.0 mi West 16.1 mph 25.3 mph 0.00 in   Overcast
2:38 PM 57.2 °F 51.8 °F 82% 29.66 in 4.0 mi Variable 4.6 mph 19.6 mph 0.02 in Rain Light Rain
2:53 PM 55.9 °F 52.0 °F 87% 29.66 in 8.0 mi Variable 6.9 mph - 0.03 in Rain Light Rain
3:24 PM 53.6 °F 48.2 °F 82% 29.72 in 10.0 mi West 13.8 mph 25.3 mph 0.00 in Rain Light Rain
3:53 PM 53.1 °F 44.1 °F 71% 29.72 in 10.0 mi West 6.9 mph 21.9 mph 0.00 in   Overcast
4:06 PM 51.8 °F 44.6 °F 76% 29.76 in 7.0 mi WSW 12.7 mph 25.3 mph 0.01 in Rain Light Rain
4:53 PM 50.0 °F 44.1 °F 80% 29.77 in 10.0 mi SW 6.9 mph 19.6 mph 0.03 in Rain Light Rain
5:53 PM 50.0 °F 42.1 °F 74% 29.78 in 10.0 mi SW 8.1 mph - 0.00 in   Overcast
6:05 PM 50.0 °F 42.8 °F 76% 29.79 in 10.0 mi SW 8.1 mph - N/A   Overcast
6:53 PM 50.0 °F 41.0 °F 71% 29.80 in 10.0 mi WSW 4.6 mph - N/A   Overcast
7:53 PM 48.9 °F 39.0 °F 69% 29.79 in 10.0 mi SSW 8.1 mph 16.1 mph N/A   Overcast
8:53 PM 48.9 °F 37.0 °F 64% 29.82 in 10.0 mi SW 8.1 mph - N/A   Overcast
9:53 PM 48.0 °F 35.1 °F 61% 29.85 in 10.0 mi SW 9.2 mph - N/A   Overcast
10:53 PM 48.0 °F 30.9 °F 52% 29.87 in 10.0 mi West 9.2 mph 16.1 mph N/A   Overcast
11:53 PM 46.9 °F 33.1 °F 59% 29.88 in 10.0 mi SW 5.8 mph - N/A   Overcast